DW4174 Weather Reports


time (UTC)temp
F
wind
direction
speed
knots
gust
knots
rain 1hr
in
rain 24hr
in
rain mn
in
humidity
%
barometer
mb
20260509160832 88 110 1.7 6.1 0.00 0.00 0.00 20 1009.9
20260509155934 88 105 1.7 5.2 0.00 0.00 0.00 20 1010.0
20260509155032 87 110 2.6 6.1 0.00 0.00 0.00 20 1009.9
20260509154132 86 141 2.6 5.2 0.00 0.00 0.00 20 1009.9
20260509153233 85 134 2.6 5.2 0.00 0.00 0.00 20 1010.0
20260509152333 84 109 2.6 7.0 0.00 0.00 0.00 22 1010.0
20260509150532 83 108 2.6 6.1 0.00 0.00 0.00 22 1009.9
20260509145632 82 115 2.6 6.1 0.00 0.00 0.00 24 1009.9
20260509144732 81 105 3.5 6.1 0.00 0.00 0.00 24 1009.9
20260509143832 80 98 2.6 7.0 0.00 0.00 0.00 24 1009.8
20260509142032 79 121 1.7 6.1 0.00 0.00 0.00 25 1009.7
20260509141133 78 157 1.7 3.5 0.00 0.00 0.00 26 1009.6
20260509140232 77 104 1.7 5.2 0.00 0.00 0.00 26 1009.7
20260509135332 76 107 2.6 7.0 0.00 0.00 0.00 27 1009.5
20260509133532 74 120 2.6 5.2 0.00 0.00 0.00 28 1009.4
20260509132633 73 109 1.7 6.1 0.00 0.00 0.00 28 1009.1
20260509131732 73 101 2.6 6.1 0.00 0.00 0.00 29 1009.1
20260509130832 72 95 3.5 6.1 0.00 0.00 0.00 28 1008.9
20260509125932 71 93 2.6 6.1 0.00 0.00 0.00 29 1008.8
20260509125032 71 93 2.6 6.1 0.00 0.00 0.00 29 1008.7
20260509124132 71 96 2.6 5.2 0.00 0.00 0.00 29 1008.6
20260509123232 71 100 2.6 5.2 0.00 0.00 0.00 30 1008.5
20260509122332 71 110 1.7 3.5 0.00 0.00 0.00 30 1008.3
20260509121432 71 111 1.7 3.5 0.00 0.00 0.00 30 1008.2
20260509120532 72 107 0.9 2.6 0.00 0.00 0.00 29 1008.2
20260509115632 72 94 1.7 3.5 0.00 0.00 0.00 29 1008.0
20260509114733 72 95 1.7 3.5 0.00 0.00 0.00 29 1008.0
20260509113832 72 94 1.7 3.5 0.00 0.00 0.00 29 1008.0
20260509112932 72 95 1.7 2.6 0.00 0.00 0.00 30 1008.0
20260509111132 73 96 2.6 3.5 0.00 0.00 0.00 30 1007.9
20260509110232 73 101 2.6 5.2 0.00 0.00 0.00 30 1007.9
20260509105332 73 110 1.7 5.2 0.00 0.00 0.00 32 1007.8
20260509104432 73 106 1.7 3.5 0.00 0.00 0.00 32 1007.8
20260509103532 73 105 0.9 5.2 0.00 0.00 0.00 33 1007.8
20260509102632 73 144 0.9 1.7 0.00 0.00 0.00 33 1007.7
20260509100832 73 0 0.0 0.0 0.00 0.00 0.00 33 1007.6
20260509095932 73 0 0.0 0.0 0.00 0.00 0.00 33 1007.6
20260509095032 73 0 0.0 0.0 0.00 0.00 0.00 33 1007.6
20260509094132 73 0 0.0 0.0 0.00 0.00 0.00 32 1007.7
20260509093232 74 0 0.0 0.0 0.00 0.00 0.00 31 1007.7
20260509092332 75 0 0.0 0.0 0.00 0.00 0.00 30 1007.7
20260509091432 75 0 0.0 0.0 0.00 0.00 0.00 30 1007.8
20260509090532 75 0 0.0 0.0 0.00 0.00 0.00 30 1007.8
20260509085632 76 0 0.0 0.0 0.00 0.00 0.00 29 1007.7
20260509084732 76 0 0.0 0.0 0.00 0.00 0.00 29 1007.7
20260509083832 76 0 0.0 0.0 0.00 0.00 0.00 28 1007.7
20260509082932 77 0 0.0 0.0 0.00 0.00 0.00 27 1007.7
20260509082032 76 0 0.0 0.0 0.00 0.00 0.00 27 1007.5
20260509080232 78 0 0.0 0.0 0.00 0.00 0.00 26 1007.5
20260509075332 78 0 0.0 0.0 0.00 0.00 0.00 25 1007.5
20260509074432 78 0 0.0 0.0 0.00 0.00 0.00 25 1007.5
20260509073532 78 0 0.0 0.0 0.00 0.00 0.00 24 1007.4
20260509071732 78 0 0.0 0.0 0.00 0.00 0.00 23 1007.5
20260509065932 79 0 0.0 0.0 0.00 0.00 0.00 22 1007.4
20260509065032 80 0 0.0 0.0 0.00 0.00 0.00 22 1007.3
20260509064132 80 0 0.0 0.0 0.00 0.00 0.00 22 1007.3
20260509063232 80 0 0.0 0.0 0.00 0.00 0.00 21 1007.3
20260509062332 82 252 0.9 2.6 0.00 0.00 0.00 21 1007.3
20260509061432 82 246 0.9 4.3 0.00 0.00 0.00 21 1007.2
20260509060532 82 240 0.0 2.6 0.00 0.00 0.00 22 1007.3
20260509054732 82 0 0.0 0.0 0.00 0.00 0.00 22 1007.1
20260509053832 82 0 0.0 0.0 0.00 0.00 0.00 23 1007.2
20260509052932 83 0 0.0 0.0 0.00 0.00 0.00 21 1007.1
20260509052032 84 0 0.0 0.0 0.00 0.00 0.00 20 1007.1
20260509051132 85 238 0.0 0.9 0.00 0.00 0.00 19 1007.1
20260509050232 86 238 0.0 4.3 0.00 0.00 0.00 18 1007.1
20260509045332 87 236 0.9 2.6 0.00 0.00 0.00 18 1007.1
20260509044432 87 232 0.0 2.6 0.00 0.00 0.00 18 1007.0
20260509042631 90 242 3.5 7.0 0.00 0.00 0.00 16 1006.9
20260509041732 90 244 3.5 7.0 0.00 0.00 0.00 16 1006.8
20260509040832 90 246 1.7 7.0 0.00 0.00 0.00 16 1006.7
20260509021715 95 257 4.3 7.8 0.00 0.00 0.00 12 1005.4
20260509020815 96 253 4.3 7.8 0.00 0.00 0.00 12 1005.3
20260509014115 97 262 7.0 10.4 0.00 0.00 0.00 11 1005.2
20260509012113 98 261 7.8 11.3 0.00 0.00 0.00 11 1005.2
20260509011213 99 280 7.8 11.3 0.00 0.00 0.00 11 1005.4
20260509010313 99 278 6.1 14.8 0.00 0.00 0.00 11 1005.5
20260509005413 100 253 7.0 10.4 0.00 0.00 0.00 11 1005.4
20260509004513 100 264 7.0 12.2 0.00 0.00 0.00 11 1005.5
20260509003613 100 272 6.1 13.0 0.00 0.00 0.00 11 1005.6
20260509002713 101 268 7.0 12.2 0.00 0.00 0.00 11 1005.7
20260509001813 100 267 7.8 12.2 0.00 0.00 0.00 11 1005.7
20260509000913 100 277 7.0 13.0 0.00 0.00 0.00 11 1005.8
20260509000013 100 288 7.8 12.2 0.00 0.00 0.00 11 1005.8
20260508235113 101 270 7.8 12.2 0.00 0.00 0.00 11 1005.9
20260508233313 101 276 8.7 14.8 0.00 0.00 0.00 10 1006.0
20260508232413 101 283 8.7 13.9 0.00 0.00 0.00 10 1006.2
20260508231513 101 286 7.8 14.8 0.00 0.00 0.00 11 1006.3
20260508230613 101 272 8.7 16.5 0.00 0.00 0.00 11 1006.2
20260508225713 101 256 7.8 16.5 0.00 0.00 0.00 11 1006.3
20260508224813 101 268 8.7 14.8 0.00 0.00 0.00 11 1006.4
20260508223913 101 280 7.8 14.8 0.00 0.00 0.00 11 1006.6
20260508223013 102 288 7.8 14.8 0.00 0.00 0.00 12 1006.7
20260508222113 101 279 8.7 14.8 0.00 0.00 0.00 11 1006.8
20260508221213 101 284 8.7 13.9 0.00 0.00 0.00 11 1007.0
20260508220313 101 297 7.8 15.6 0.00 0.00 0.00 11 1007.2
20260508215413 102 270 7.0 13.9 0.00 0.00 0.00 11 1007.4
20260508214513 101 271 7.0 13.0 0.00 0.00 0.00 12 1007.6
20260508213613 100 265 7.0 12.2 0.00 0.00 0.00 12 1007.8
20260508212713 101 261 6.1 14.8 0.00 0.00 0.00 12 1008.0
20260508211813 101 274 5.2 11.3 0.00 0.00 0.00 12 1008.1
20260508210912 100 285 7.0 13.0 0.00 0.00 0.00 12 1008.2
20260508210013 100 276 7.0 13.0 0.00 0.00 0.00 12 1008.4
20260508204213 98 307 3.5 8.7 0.00 0.00 0.00 13 1008.7
20260508203312 98 277 4.3 8.7 0.00 0.00 0.00 14 1008.8
20260508201513 96 184 3.5 10.4 0.00 0.00 0.00 14 1009.1
20260508200613 96 196 2.6 7.8 0.00 0.00 0.00 15 1009.3
20260508195713 97 199 1.7 6.1 0.00 0.00 0.00 15 1009.4
20260508194812 94 167 2.6 6.1 0.00 0.00 0.00 15 1009.4
20260508193914 95 212 2.6 6.1 0.00 0.00 0.00 14 1009.6
20260508193013 94 216 3.5 7.8 0.00 0.00 0.00 15 1009.9
20260508192112 97 227 3.5 11.3 0.00 0.00 0.00 14 1010.0
20260508191213 94 192 1.7 5.2 0.00 0.00 0.00 16 1010.1
20260508190313 93 195 3.5 6.1 0.00 0.00 0.00 16 1010.3
20260508185413 94 257 3.5 9.6 0.00 0.00 0.00 15 1010.4
20260508183612 91 193 1.7 6.1 0.00 0.00 0.00 17 1010.6
20260508182712 91 250 2.6 5.2 0.00 0.00 0.00 17 1010.7
20260508181812 91 243 2.6 6.1 0.00 0.00 0.00 16 1010.8
20260508180913 90 189 2.6 7.0 0.00 0.00 0.00 17 1011.0
20260508180012 90 213 1.7 5.2 0.00 0.00 0.00 19 1011.0
20260508174212 89 160 2.6 5.2 0.00 0.00 0.00 19 1011.2
20260508173312 88 204 1.7 5.2 0.00 0.00 0.00 20 1011.3
20260508172412 86 129 2.6 5.2 0.00 0.00 0.00 20 1011.3
20260508171512 86 173 2.6 5.2 0.00 0.00 0.00 21 1011.5
20260508170612 87 169 1.7 6.1 0.00 0.00 0.00 21 1011.5
20260508165712 86 144 2.6 6.1 0.00 0.00 0.00 22 1011.5
20260508164812 85 138 2.6 5.2 0.00 0.00 0.00 22 1011.6
20260508163912 84 109 2.6 6.1 0.00 0.00 0.00 22 1011.7
20260508162112 83 155 2.6 8.7 0.00 0.00 0.00 23 1011.6
20260508161212 83 129 2.6 4.3 0.00 0.00 0.00 24 1011.6